Time,TemperatureF,DewpointF,PressureIn,WindDirection,WindDirectionDegrees,WindSpeedMPH,WindSpeedGustMPH,Humidity,HourlyPrecipIn,Conditions,Clouds,dailyrainin,SoftwareType,DateUTC
2013-02-09 00:00:00,15.5,10.7,30.16,SE,135,9.0,11.0,81,0.00,,SKC,0.00,VWS V14.01,2013-02-09 06:00:00,
2013-02-09 00:01:00,15.4,10.6,30.16,SE,136,6.0,10.0,81,0.00,,SKC,0.01,VWS V14.01,2013-02-09 06:01:00,
2013-02-09 00:06:00,15.6,10.8,30.16,SE,135,8.0,9.0,81,0.00,,SKC,0.00,VWS V14.01,2013-02-09 06:06:00,
2013-02-09 00:11:00,15.8,11.3,30.16,SE,134,8.0,10.0,82,0.00,,SKC,0.00,VWS V14.01,2013-02-09 06:11:00,
2013-02-09 00:16:00,16.0,11.5,30.15,SE,134,9.0,11.0,82,0.00,,SKC,0.00,VWS V14.01,2013-02-09 06:16:00,
2013-02-09 00:21:00,16.3,11.8,30.15,SE,133,9.0,11.0,82,0.00,,SKC,0.00,VWS V14.01,2013-02-09 06:21:00,
2013-02-09 00:26:00,16.5,12.2,30.15,SE,132,12.0,12.0,83,0.00,,SKC,0.00,VWS V14.01,2013-02-09 06:26:00,
2013-02-09 00:30:00,16.8,12.5,30.15,SE,133,7.0,12.0,83,0.00,,SKC,0.00,VWS V14.01,2013-02-09 06:30:00,
2013-02-09 00:31:00,16.7,12.4,30.15,SE,131,8.0,12.0,83,0.00,,SKC,0.00,VWS V14.01,2013-02-09 06:31:00,
2013-02-09 00:36:00,16.8,12.5,30.15,SE,134,7.0,8.0,83,0.00,,SKC,0.00,VWS V14.01,2013-02-09 06:36:00,
2013-02-09 00:41:00,17.0,13.0,30.15,SE,136,10.0,13.0,84,0.00,,SKC,0.00,VWS V14.01,2013-02-09 06:41:00,
2013-02-09 00:46:00,17.0,13.0,30.15,SE,136,10.0,13.0,84,0.00,,SKC,0.00,VWS V14.01,2013-02-09 06:46:00,
2013-02-09 00:51:00,17.1,13.1,30.15,SE,132,11.0,13.0,84,0.00,,SKC,0.00,VWS V14.01,2013-02-09 06:51:00,
2013-02-09 00:56:00,17.2,13.2,30.14,SE,129,6.0,13.0,84,0.00,,SKC,0.00,VWS V14.01,2013-02-09 06:56:00,
2013-02-09 01:00:00,17.5,13.8,30.14,SE,129,8.0,13.0,85,0.00,,SKC,0.00,VWS V14.01,2013-02-09 07:00:00,
2013-02-09 01:01:00,17.3,13.3,30.14,SE,129,7.0,13.0,84,0.00,,SKC,0.00,VWS V14.01,2013-02-09 07:01:00,
2013-02-09 01:06:00,17.5,13.8,30.14,SE,129,8.0,9.0,85,0.00,,SKC,0.00,VWS V14.01,2013-02-09 07:06:00,
2013-02-09 01:11:00,17.7,14.0,30.14,SE,130,10.0,11.0,85,0.00,,SKC,0.00,VWS V14.01,2013-02-09 07:11:00,
2013-02-09 01:16:00,17.9,14.2,30.14,SE,129,8.0,11.0,85,0.00,,SKC,0.00,VWS V14.01,2013-02-09 07:16:00,
2013-02-09 01:22:00,18.0,14.5,30.14,SE,128,11.0,11.0,86,0.00,,SKC,0.00,VWS V14.01,2013-02-09 07:22:00,
2013-02-09 01:27:00,18.1,14.6,30.13,SE,127,9.0,12.0,86,0.00,,SKC,0.00,VWS V14.01,2013-02-09 07:27:00,
2013-02-09 01:30:00,18.4,15.2,30.13,SE,126,6.0,12.0,87,0.00,,SKC,0.00,VWS V14.01,2013-02-09 07:30:00,
2013-02-09 01:32:00,18.3,14.8,30.13,SE,125,9.0,12.0,86,0.00,,SKC,0.00,VWS V14.01,2013-02-09 07:32:00,
2013-02-09 01:37:00,18.5,15.3,30.13,SE,126,9.0,9.0,87,0.00,,SKC,0.00,VWS V14.01,2013-02-09 07:37:00,
2013-02-09 01:42:00,18.6,15.4,30.13,SE,126,10.0,10.0,87,0.00,,SKC,0.00,VWS V14.01,2013-02-09 07:42:00,
2013-02-09 01:47:00,18.8,15.6,30.13,SE,126,8.0,10.0,87,0.00,,SKC,0.00,VWS V14.01,2013-02-09 07:47:00,
2013-02-09 01:52:00,19.1,16.1,30.13,SE,128,7.0,13.0,88,0.00,,SKC,0.00,VWS V14.01,2013-02-09 07:52:00,
2013-02-09 01:57:00,19.4,16.4,30.12,SE,128,12.0,13.0,88,0.00,,SKC,0.00,VWS V14.01,2013-02-09 07:57:00,
2013-02-09 02:00:00,19.7,17.0,30.12,SE,135,12.0,13.0,89,0.00,,SKC,0.00,VWS V14.01,2013-02-09 08:00:00,
2013-02-09 02:02:00,19.7,16.7,30.12,SE,136,8.0,13.0,88,0.00,,SKC,0.00,VWS V14.01,2013-02-09 08:02:00,
2013-02-09 02:07:00,19.8,17.1,30.12,SE,134,9.0,12.0,89,0.00,,SKC,0.00,VWS V14.01,2013-02-09 08:07:00,
2013-02-09 02:12:00,20.1,17.4,30.13,SE,143,8.0,15.0,89,0.00,,SKC,0.00,VWS V14.01,2013-02-09 08:12:00,
2013-02-09 02:17:00,20.3,17.6,30.13,SE,146,8.0,15.0,89,0.00,,SKC,0.00,VWS V14.01,2013-02-09 08:17:00,
2013-02-09 02:22:00,20.6,17.9,30.12,SE,145,14.0,16.0,89,0.00,,SKC,0.00,VWS V14.01,2013-02-09 08:22:00,
2013-02-09 02:27:00,20.8,18.1,30.11,SE,145,10.0,16.0,89,0.00,,SKC,0.00,VWS V14.01,2013-02-09 08:27:00,
2013-02-09 02:30:00,21.0,18.3,30.11,SE,138,11.0,16.0,89,0.00,,SKC,0.00,VWS V14.01,2013-02-09 08:30:00,
2013-02-09 02:32:00,20.9,18.2,30.11,SE,134,11.0,16.0,89,0.00,,SKC,0.00,VWS V14.01,2013-02-09 08:32:00,
2013-02-09 02:37:00,21.0,18.3,30.11,SSE,151,11.0,12.0,89,0.00,,SKC,0.00,VWS V14.01,2013-02-09 08:37:00,
2013-02-09 02:42:00,21.1,18.4,30.11,SE,143,9.0,14.0,89,0.00,,SKC,0.00,VWS V14.01,2013-02-09 08:42:00,
2013-02-09 02:47:00,21.2,18.5,30.11,SE,142,10.0,14.0,89,0.00,,SKC,0.00,VWS V14.01,2013-02-09 08:47:00,
2013-02-09 02:52:00,21.2,18.5,30.10,SE,140,6.0,15.0,89,0.00,,SKC,0.00,VWS V14.01,2013-02-09 08:52:00,
2013-02-09 02:57:00,21.3,18.6,30.10,SE,146,9.0,15.0,89,0.00,,SKC,0.00,VWS V14.01,2013-02-09 08:57:00,
2013-02-09 03:00:00,21.4,18.7,30.10,SE,138,10.0,16.0,89,0.00,,SKC,0.00,VWS V14.01,2013-02-09 09:00:00,
2013-02-09 03:02:00,21.4,18.7,30.10,SE,135,6.0,15.0,89,0.00,,SKC,0.00,VWS V14.01,2013-02-09 09:02:00,
2013-02-09 03:07:00,21.4,18.7,30.10,SE,146,9.0,11.0,89,0.00,,SKC,0.00,VWS V14.01,2013-02-09 09:07:00,
2013-02-09 03:12:00,21.5,18.8,30.09,SE,138,8.0,13.0,89,0.00,,SKC,0.00,VWS V14.01,2013-02-09 09:12:00,
2013-02-09 03:17:00,21.5,18.8,30.09,SE,144,8.0,16.0,89,0.00,,SKC,0.00,VWS V14.01,2013-02-09 09:17:00,
2013-02-09 03:22:00,21.5,18.8,30.09,SSE,161,6.0,18.0,89,0.00,,SKC,0.00,VWS V14.01,2013-02-09 09:22:00,
2013-02-09 03:27:00,21.6,18.9,30.08,SSE,148,12.0,18.0,89,0.00,,SKC,0.00,VWS V14.01,2013-02-09 09:27:00,
2013-02-09 03:30:00,21.6,18.9,30.08,SE,140,11.0,18.0,89,0.00,,SKC,0.00,VWS V14.01,2013-02-09 09:30:00,
2013-02-09 03:32:00,21.6,18.9,30.08,SSE,149,9.0,18.0,89,0.00,,SKC,0.00,VWS V14.01,2013-02-09 09:32:00,
2013-02-09 03:37:00,21.7,19.0,30.08,SE,140,10.0,12.0,89,0.00,,SKC,0.00,VWS V14.01,2013-02-09 09:37:00,
2013-02-09 03:42:00,21.7,19.0,30.07,SE,133,8.0,16.0,89,0.00,,SKC,0.00,VWS V14.01,2013-02-09 09:42:00,
2013-02-09 03:47:00,21.7,19.2,30.07,SE,137,9.0,16.0,90,0.00,,SKC,0.00,VWS V14.01,2013-02-09 09:47:00,
2013-02-09 03:52:00,21.8,19.3,30.07,SE,141,7.0,16.0,90,0.00,,SKC,0.00,VWS V14.01,2013-02-09 09:52:00,
2013-02-09 03:57:00,21.8,19.3,30.06,SE,146,10.0,16.0,90,0.00,,SKC,0.00,VWS V14.01,2013-02-09 09:57:00,
2013-02-09 04:00:00,22.0,19.5,30.06,SE,145,8.0,16.0,90,0.00,,SKC,0.00,VWS V14.01,2013-02-09 10:00:00,
2013-02-09 04:02:00,21.9,19.4,30.06,SE,145,5.0,16.0,90,0.00,,SKC,0.00,VWS V14.01,2013-02-09 10:02:00,
2013-02-09 04:07:00,22.0,19.5,30.07,SE,146,7.0,12.0,90,0.00,,SKC,0.00,VWS V14.01,2013-02-09 10:07:00,
2013-02-09 04:12:00,22.1,19.6,30.07,SE,136,8.0,12.0,90,0.00,,SKC,0.00,VWS V14.01,2013-02-09 10:12:00,
2013-02-09 04:17:00,22.2,19.7,30.07,SSE,150,12.0,12.0,90,0.00,,SKC,0.00,VWS V14.01,2013-02-09 10:17:00,
2013-02-09 04:23:00,22.3,19.8,30.07,SE,145,6.0,12.0,90,0.00,,SKC,0.00,VWS V14.01,2013-02-09 10:23:00,
2013-02-09 04:28:00,22.4,19.9,30.06,SE,142,10.0,13.0,90,0.00,,SKC,0.00,VWS V14.01,2013-02-09 10:28:00,
2013-02-09 04:30:00,22.5,20.0,30.06,SE,145,6.0,14.0,90,0.00,,SKC,0.00,VWS V14.01,2013-02-09 10:30:00,
2013-02-09 04:33:00,22.5,20.0,30.06,SE,144,8.0,14.0,90,0.00,,SKC,0.00,VWS V14.01,2013-02-09 10:33:00,
2013-02-09 04:38:00,22.6,20.1,30.06,SE,145,6.0,12.0,90,0.00,,SKC,0.00,VWS V14.01,2013-02-09 10:38:00,
2013-02-09 04:43:00,22.7,20.2,30.06,SE,146,2.0,12.0,90,0.00,,SKC,0.00,VWS V14.01,2013-02-09 10:43:00,
2013-02-09 04:48:00,22.8,20.3,30.06,SE,144,10.0,15.0,90,0.00,,SKC,0.00,VWS V14.01,2013-02-09 10:48:00,
2013-02-09 04:53:00,22.9,20.4,30.06,SE,146,5.0,15.0,90,0.00,,SKC,0.00,VWS V14.01,2013-02-09 10:53:00,
2013-02-09 04:58:00,23.0,20.5,30.06,SE,146,10.0,15.0,90,0.00,,SKC,0.00,VWS V14.01,2013-02-09 10:58:00,
2013-02-09 05:00:00,23.1,20.6,30.06,SE,144,3.0,15.0,90,0.00,,SKC,0.00,VWS V14.01,2013-02-09 11:00:00,
2013-02-09 05:03:00,23.1,20.6,30.06,SSE,148,6.0,15.0,90,0.00,,SKC,0.00,VWS V14.01,2013-02-09 11:03:00,
2013-02-09 05:08:00,23.1,20.6,30.06,SSE,147,5.0,10.0,90,0.00,,SKC,0.00,VWS V14.01,2013-02-09 11:08:00,
2013-02-09 05:13:00,23.2,20.7,30.06,SE,146,4.0,10.0,90,0.00,,SKC,0.00,VWS V14.01,2013-02-09 11:13:00,
2013-02-09 05:18:00,23.2,20.7,30.06,SSE,147,1.0,10.0,90,0.00,,SKC,0.00,VWS V14.01,2013-02-09 11:18:00,
2013-02-09 05:23:00,23.3,20.8,30.06,SSE,147,4.0,11.0,90,0.00,,SKC,0.00,VWS V14.01,2013-02-09 11:23:00,
2013-02-09 05:28:00,23.3,20.8,30.06,SSE,148,4.0,16.0,90,0.00,,SKC,0.00,VWS V14.01,2013-02-09 11:28:00,
2013-02-09 05:30:00,23.4,20.9,30.06,SSE,147,7.0,16.0,90,0.00,,SKC,0.00,VWS V14.01,2013-02-09 11:30:00,
2013-02-09 05:33:00,23.4,20.9,30.06,SSE,148,4.0,16.0,90,0.00,,SKC,0.00,VWS V14.01,2013-02-09 11:33:00,
2013-02-09 05:38:00,23.4,20.9,30.05,SE,144,10.0,10.0,90,0.00,,SKC,0.00,VWS V14.01,2013-02-09 11:38:00,
2013-02-09 05:43:00,23.5,21.0,30.05,SE,145,4.0,10.0,90,0.00,,SKC,0.00,VWS V14.01,2013-02-09 11:43:00,
2013-02-09 05:48:00,23.5,21.0,30.05,SE,139,9.0,10.0,90,0.00,,SKC,0.00,VWS V14.01,2013-02-09 11:48:00,
2013-02-09 05:53:00,23.6,21.1,30.04,SE,146,10.0,13.0,90,0.00,,SKC,0.00,VWS V14.01,2013-02-09 11:53:00,
2013-02-09 05:58:00,23.6,21.1,30.05,SE,140,5.0,13.0,90,0.00,,SKC,0.00,VWS V14.01,2013-02-09 11:58:00,
2013-02-09 06:00:00,23.7,21.2,30.04,SSE,147,6.0,16.0,90,0.00,,SKC,0.00,VWS V14.01,2013-02-09 12:00:00,
2013-02-09 06:03:00,23.7,21.2,30.04,SE,141,5.0,13.0,90,0.00,,SKC,0.00,VWS V14.01,2013-02-09 12:03:00,
2013-02-09 06:08:00,23.7,21.2,30.04,SE,144,6.0,11.0,90,0.00,,SKC,0.00,VWS V14.01,2013-02-09 12:08:00,
2013-02-09 06:13:00,23.7,21.2,30.04,SE,146,3.0,11.0,90,0.00,,SKC,0.00,VWS V14.01,2013-02-09 12:13:00,
2013-02-09 06:18:00,23.8,21.3,30.04,SE,146,7.0,12.0,90,0.00,,SKC,0.00,VWS V14.01,2013-02-09 12:18:00,
2013-02-09 06:23:00,23.8,21.3,30.04,SSE,154,6.0,12.0,90,0.00,,SKC,0.00,VWS V14.01,2013-02-09 12:23:00,
2013-02-09 06:28:00,23.8,21.3,30.02,SE,144,14.0,16.0,90,0.00,,SKC,0.00,VWS V14.01,2013-02-09 12:28:00,
2013-02-09 06:30:00,23.9,21.4,30.03,SE,144,13.0,16.0,90,0.00,,SKC,0.00,VWS V14.01,2013-02-09 12:30:00,
2013-02-09 06:33:00,23.9,21.4,30.03,SSE,147,8.0,16.0,90,0.00,,SKC,0.00,VWS V14.01,2013-02-09 12:33:00,
2013-02-09 06:38:00,23.9,21.4,30.02,SSE,153,6.0,18.0,90,0.00,,SKC,0.00,VWS V14.01,2013-02-09 12:38:00,
2013-02-09 06:43:00,23.9,21.7,30.03,SSE,150,8.0,18.0,91,0.00,,SKC,0.00,VWS V14.01,2013-02-09 12:43:00,
2013-02-09 06:48:00,23.9,21.7,30.03,SE,144,9.0,18.0,91,0.00,,SKC,0.00,VWS V14.01,2013-02-09 12:48:00,
2013-02-09 06:53:00,24.0,21.8,30.02,SE,142,7.0,18.0,91,0.00,,SKC,0.00,VWS V14.01,2013-02-09 12:53:00,
2013-02-09 06:58:00,24.0,21.8,30.02,SE,145,10.0,18.0,91,0.00,,SKC,0.00,VWS V14.01,2013-02-09 12:58:00,
2013-02-09 07:00:00,24.1,21.6,30.02,SE,146,9.0,20.0,90,0.00,,SKC,0.00,VWS V14.01,2013-02-09 13:00:00,
2013-02-09 07:03:00,24.0,21.5,30.02,SE,143,6.0,18.0,90,0.00,,SKC,0.00,VWS V14.01,2013-02-09 13:03:00,
2013-02-09 07:09:00,24.1,21.6,30.02,SSE,148,6.0,14.0,90,0.00,,SKC,0.00,VWS V14.01,2013-02-09 13:09:00,
2013-02-09 07:14:00,24.1,21.6,30.02,SE,139,9.0,20.0,90,0.00,,SKC,0.00,VWS V14.01,2013-02-09 13:14:00,
2013-02-09 07:19:00,24.2,21.7,30.01,SE,124,13.0,20.0,90,0.00,,SKC,0.00,VWS V14.01,2013-02-09 13:19:00,
2013-02-09 07:24:00,24.2,21.7,30.01,SE,146,10.0,20.0,90,0.00,,SKC,0.00,VWS V14.01,2013-02-09 13:24:00,
2013-02-09 07:29:00,24.3,21.8,30.01,SE,144,14.0,20.0,90,0.00,,SKC,0.00,VWS V14.01,2013-02-09 13:29:00,
2013-02-09 07:30:00,24.4,21.9,30.02,SSE,147,5.0,20.0,90,0.00,,SKC,0.00,VWS V14.01,2013-02-09 13:30:00,
2013-02-09 07:34:00,24.3,21.8,30.02,SSE,147,4.0,20.0,90,0.00,,SKC,0.00,VWS V14.01,2013-02-09 13:34:00,
2013-02-09 07:39:00,24.4,21.9,30.02,SSE,150,9.0,11.0,90,0.00,,SKC,0.00,VWS V14.01,2013-02-09 13:39:00,
2013-02-09 07:44:00,24.4,21.9,30.02,SE,146,6.0,11.0,90,0.00,,SKC,0.00,VWS V14.01,2013-02-09 13:44:00,
2013-02-09 07:49:00,24.5,22.0,30.02,SE,145,8.0,12.0,90,0.00,,SKC,0.00,VWS V14.01,2013-02-09 13:49:00,
2013-02-09 07:54:00,24.5,22.0,30.02,SE,144,4.0,12.0,90,0.00,,SKC,0.00,VWS V14.01,2013-02-09 13:54:00,
2013-02-09 07:59:00,24.7,22.2,30.02,SE,141,14.0,14.0,90,0.00,,SKC,0.00,VWS V14.01,2013-02-09 13:59:00,
2013-02-09 08:00:00,24.8,22.3,30.02,SE,146,5.0,14.0,90,0.00,,SKC,0.00,VWS V14.01,2013-02-09 14:00:00,
2013-02-09 08:04:00,24.7,22.2,30.02,SE,146,5.0,14.0,90,0.00,,SKC,0.00,VWS V14.01,2013-02-09 14:04:00,
2013-02-09 08:09:00,24.8,22.3,30.02,SSE,148,6.0,14.0,90,0.00,,SKC,0.00,VWS V14.01,2013-02-09 14:09:00,
2013-02-09 08:14:00,24.9,22.4,30.02,SE,145,9.0,14.0,90,0.00,,SKC,0.00,VWS V14.01,2013-02-09 14:14:00,
2013-02-09 08:19:00,24.9,22.4,30.02,SSE,165,11.0,14.0,90,0.00,,SKC,0.00,VWS V14.01,2013-02-09 14:19:00,
2013-02-09 08:24:00,25.0,22.5,30.02,SSE,149,2.0,14.0,90,0.00,,SKC,0.00,VWS V14.01,2013-02-09 14:24:00,
2013-02-09 08:29:00,25.1,22.6,30.03,SSE,149,0.0,14.0,90,0.00,,SKC,0.00,VWS V14.01,2013-02-09 14:29:00,
2013-02-09 08:30:00,25.2,22.7,30.03,SSE,149,0.0,14.0,90,0.00,,SKC,0.00,VWS V14.01,2013-02-09 14:30:00,
2013-02-09 08:34:00,25.2,22.7,30.03,SSE,149,3.0,14.0,90,0.00,,SKC,0.00,VWS V14.01,2013-02-09 14:34:00,
2013-02-09 08:39:00,25.3,22.8,30.03,SSE,149,2.0,5.0,90,0.00,,SKC,0.00,VWS V14.01,2013-02-09 14:39:00,
2013-02-09 08:44:00,25.4,22.9,30.03,SSE,152,1.0,7.0,90,0.00,,SKC,0.00,VWS V14.01,2013-02-09 14:44:00,
2013-02-09 08:49:00,25.5,23.0,30.03,SSE,152,0.0,7.0,90,0.00,,SKC,0.00,VWS V14.01,2013-02-09 14:49:00,
2013-02-09 08:54:00,25.6,23.1,30.03,SSE,152,0.0,7.0,90,0.00,,SKC,0.00,VWS V14.01,2013-02-09 14:54:00,
2013-02-09 08:59:00,25.8,23.3,30.03,SSE,152,0.0,7.0,90,0.00,,SKC,0.00,VWS V14.01,2013-02-09 14:59:00,
2013-02-09 09:00:00,25.9,23.4,30.03,SSE,153,1.0,7.0,90,0.00,,SKC,0.00,VWS V14.01,2013-02-09 15:00:00,
2013-02-09 09:04:00,25.9,23.4,30.02,SSE,153,1.0,7.0,90,0.00,,SKC,0.00,VWS V14.01,2013-02-09 15:04:00,
2013-02-09 09:09:00,26.0,23.5,30.03,SSE,153,0.0,3.0,90,0.00,,SKC,0.00,VWS V14.01,2013-02-09 15:09:00,
2013-02-09 09:14:00,26.1,23.3,30.03,SSE,153,1.0,7.0,89,0.00,,SKC,0.00,VWS V14.01,2013-02-09 15:14:00,
2013-02-09 09:19:00,26.2,23.4,30.03,SE,138,3.0,12.0,89,0.00,,SKC,0.00,VWS V14.01,2013-02-09 15:19:00,
2013-02-09 09:24:00,26.2,23.4,30.03,SSW,194,0.0,12.0,89,0.00,,SKC,0.00,VWS V14.01,2013-02-09 15:24:00,
2013-02-09 09:29:00,26.4,23.6,30.03,SSW,195,0.0,12.0,89,0.00,,SKC,0.00,VWS V14.01,2013-02-09 15:29:00,
2013-02-09 09:30:00,26.5,23.7,30.03,SSW,197,1.0,12.0,89,0.00,,SKC,0.00,VWS V14.01,2013-02-09 15:30:00,
2013-02-09 09:34:00,26.5,23.7,30.03,SSW,197,2.0,12.0,89,0.00,,SKC,0.00,VWS V14.01,2013-02-09 15:34:00,
2013-02-09 09:40:00,26.7,23.9,30.02,SSW,200,1.0,7.0,89,0.00,,SKC,0.00,VWS V14.01,2013-02-09 15:40:00,
2013-02-09 09:45:00,26.7,23.9,30.02,SSW,195,1.0,8.0,89,0.00,,SKC,0.00,VWS V14.01,2013-02-09 15:45:00,
2013-02-09 09:50:00,26.8,24.0,30.02,South,185,2.0,8.0,89,0.00,,SKC,0.00,VWS V14.01,2013-02-09 15:50:00,
2013-02-09 09:55:00,26.8,23.7,30.02,SSE,148,1.0,8.0,88,0.00,,SKC,0.00,VWS V14.01,2013-02-09 15:55:00,
2013-02-09 10:00:00,26.8,23.7,30.03,South,183,6.0,9.0,88,0.00,,SKC,0.00,VWS V14.01,2013-02-09 16:00:00,
2013-02-09 10:05:00,27.0,24.2,30.03,South,182,0.0,9.0,89,0.00,,SKC,0.00,VWS V14.01,2013-02-09 16:05:00,
2013-02-09 10:10:00,27.0,23.9,30.03,South,190,0.0,6.0,88,0.00,,SKC,0.00,VWS V14.01,2013-02-09 16:10:00,
2013-02-09 10:15:00,27.1,24.0,30.03,SSE,167,1.0,8.0,88,0.00,,SKC,0.00,VWS V14.01,2013-02-09 16:15:00,
2013-02-09 10:20:00,27.2,24.1,30.02,SSW,202,2.0,8.0,88,0.00,,SKC,0.00,VWS V14.01,2013-02-09 16:20:00,
2013-02-09 10:25:00,27.4,24.3,30.02,SSW,202,1.0,8.0,88,0.00,,SKC,0.00,VWS V14.01,2013-02-09 16:25:00,
2013-02-09 10:30:00,27.4,24.3,30.02,South,186,5.0,8.0,88,0.00,,SKC,0.00,VWS V14.01,2013-02-09 16:30:00,
2013-02-09 10:35:00,27.5,24.4,30.02,South,190,1.0,8.0,88,0.00,,SKC,0.00,VWS V14.01,2013-02-09 16:35:00,
2013-02-09 10:40:00,27.6,24.2,30.02,SSW,207,3.0,7.0,87,0.00,,SKC,0.00,VWS V14.01,2013-02-09 16:40:00,
2013-02-09 10:45:00,27.6,24.2,30.02,SSW,207,0.0,7.0,87,0.00,,SKC,0.00,VWS V14.01,2013-02-09 16:45:00,
2013-02-09 10:50:00,27.6,24.2,30.02,South,178,4.0,7.0,87,0.00,,SKC,0.00,VWS V14.01,2013-02-09 16:50:00,
2013-02-09 10:55:00,27.6,24.2,30.02,SSW,211,6.0,9.0,87,0.00,,SKC,0.00,VWS V14.01,2013-02-09 16:55:00,
2013-02-09 11:00:00,27.6,24.2,30.02,South,169,1.0,10.0,87,0.00,,SKC,0.00,VWS V14.01,2013-02-09 17:00:00,
2013-02-09 11:05:00,27.8,24.2,30.02,South,169,0.0,10.0,86,0.00,,SKC,0.00,VWS V14.01,2013-02-09 17:05:00,
2013-02-09 11:10:00,28.0,24.6,30.02,South,181,0.0,5.0,87,0.00,,SKC,0.00,VWS V14.01,2013-02-09 17:10:00,
2013-02-09 11:15:00,28.1,24.5,30.02,South,181,0.0,5.0,86,0.00,,SKC,0.00,VWS V14.01,2013-02-09 17:15:00,
2013-02-09 11:20:00,28.0,24.4,30.01,South,188,2.0,10.0,86,0.00,,SKC,0.00,VWS V14.01,2013-02-09 17:20:00,
2013-02-09 11:25:00,28.0,24.4,30.02,SSW,199,7.0,10.0,86,0.00,,SKC,0.00,VWS V14.01,2013-02-09 17:25:00,
2013-02-09 11:30:00,28.0,24.4,30.02,SW,224,5.0,10.0,86,0.00,,SKC,0.00,VWS V14.01,2013-02-09 17:30:00,
2013-02-09 11:35:00,27.9,24.3,30.02,South,188,1.0,1.0,86,0.00,,SKC,0.00,VWS V14.01,2013-02-09 17:35:00,
2013-02-09 11:40:00,27.9,24.3,30.01,SSW,196,0.0,8.0,86,0.00,,SKC,0.00,VWS V14.01,2013-02-09 17:40:00,
2013-02-09 11:45:00,28.0,24.4,30.01,South,190,4.0,11.0,86,0.00,,SKC,0.00,VWS V14.01,2013-02-09 17:45:00,
2013-02-09 11:50:00,28.0,24.4,30.01,South,184,2.0,11.0,86,0.00,,SKC,0.00,VWS V14.01,2013-02-09 17:50:00,
2013-02-09 11:55:00,28.2,24.6,30.01,SW,218,1.0,11.0,86,0.00,,SKC,0.00,VWS V14.01,2013-02-09 17:55:00,
2013-02-09 12:00:00,28.1,24.5,30.00,South,186,1.0,11.0,86,0.00,,SKC,0.00,VWS V14.01,2013-02-09 18:00:00,
2013-02-09 12:05:00,28.1,24.5,30.00,SSW,198,2.0,2.0,86,0.00,,SKC,0.00,VWS V14.01,2013-02-09 18:05:00,
2013-02-09 12:11:00,28.1,24.5,30.00,SSW,203,6.0,9.0,86,0.00,,SKC,0.00,VWS V14.01,2013-02-09 18:11:00,
2013-02-09 12:16:00,28.2,24.6,30.00,SSW,202,2.0,9.0,86,0.00,,SKC,0.00,VWS V14.01,2013-02-09 18:16:00,
2013-02-09 12:21:00,28.2,24.6,29.99,South,190,3.0,9.0,86,0.00,,SKC,0.00,VWS V14.01,2013-02-09 18:21:00,
2013-02-09 12:26:00,28.1,24.5,29.99,SSW,207,1.0,9.0,86,0.00,,SKC,0.00,VWS V14.01,2013-02-09 18:26:00,
2013-02-09 12:30:00,28.2,24.6,29.99,South,185,2.0,14.0,86,0.00,,SKC,0.00,VWS V14.01,2013-02-09 18:30:00,
2013-02-09 12:31:00,28.2,24.6,29.99,SSW,199,5.0,9.0,86,0.00,,SKC,0.00,VWS V14.01,2013-02-09 18:31:00,
2013-02-09 12:36:00,28.2,24.6,29.99,South,187,5.0,6.0,86,0.00,,SKC,0.00,VWS V14.01,2013-02-09 18:36:00,
2013-02-09 12:41:00,28.2,24.6,29.99,SSW,211,9.0,12.0,86,0.00,,SKC,0.00,VWS V14.01,2013-02-09 18:41:00,
2013-02-09 12:46:00,28.3,24.7,29.98,SSW,200,7.0,14.0,86,0.00,,SKC,0.00,VWS V14.01,2013-02-09 18:46:00,
2013-02-09 12:51:00,28.3,24.7,29.98,SSW,205,6.0,15.0,86,0.00,,SKC,0.00,VWS V14.01,2013-02-09 18:51:00,
2013-02-09 12:56:00,28.4,24.8,29.98,SSW,208,4.0,15.0,86,0.00,,SKC,0.00,VWS V14.01,2013-02-09 18:56:00,
2013-02-09 13:00:00,28.4,24.8,29.97,SSW,209,6.0,15.0,86,0.00,,SKC,0.00,VWS V14.01,2013-02-09 19:00:00,
2013-02-09 13:01:00,28.4,24.8,29.98,SSW,200,3.0,15.0,86,0.00,,SKC,0.00,VWS V14.01,2013-02-09 19:01:00,
2013-02-09 13:06:00,28.4,24.8,29.97,SSW,209,6.0,9.0,86,0.00,,SKC,0.00,VWS V14.01,2013-02-09 19:06:00,
2013-02-09 13:11:00,28.4,24.8,29.97,SSW,200,5.0,9.0,86,0.00,,SKC,0.00,VWS V14.01,2013-02-09 19:11:00,
2013-02-09 13:16:00,28.5,24.9,29.97,SSW,203,8.0,9.0,86,0.00,,SKC,0.00,VWS V14.01,2013-02-09 19:16:00,
2013-02-09 13:21:00,28.5,24.9,29.97,South,189,4.0,10.0,86,0.00,,SKC,0.00,VWS V14.01,2013-02-09 19:21:00,
2013-02-09 13:26:00,28.6,25.0,29.97,SSW,200,8.0,10.0,86,0.00,,SKC,0.00,VWS V14.01,2013-02-09 19:26:00,
2013-02-09 13:30:00,28.6,25.0,29.96,SSW,202,1.0,13.0,86,0.00,,SKC,0.00,VWS V14.01,2013-02-09 19:30:00,
2013-02-09 13:31:00,28.6,25.0,29.96,SSW,200,2.0,13.0,86,0.00,,SKC,0.00,VWS V14.01,2013-02-09 19:31:00,
2013-02-09 13:36:00,28.6,25.0,29.96,SSW,193,8.0,11.0,86,0.00,,SKC,0.00,VWS V14.01,2013-02-09 19:36:00,
2013-02-09 13:41:00,28.7,25.3,29.96,SSW,201,1.0,11.0,87,0.00,,SKC,0.00,VWS V14.01,2013-02-09 19:41:00,
2013-02-09 13:46:00,28.8,25.4,29.96,SSW,198,1.0,11.0,87,0.00,,SKC,0.00,VWS V14.01,2013-02-09 19:46:00,
2013-02-09 13:51:00,28.9,25.5,29.96,SSW,202,0.0,11.0,87,0.00,,SKC,0.00,VWS V14.01,2013-02-09 19:51:00,
2013-02-09 13:56:00,28.8,25.1,29.95,South,169,2.0,11.0,86,0.00,,SKC,0.00,VWS V14.01,2013-02-09 19:56:00,
2013-02-09 14:00:00,29.1,25.7,29.95,South,170,0.0,11.0,87,0.00,,SKC,0.00,VWS V14.01,2013-02-09 20:00:00,
2013-02-09 14:01:00,29.0,25.6,29.95,South,170,0.0,11.0,87,0.00,,SKC,0.00,VWS V14.01,2013-02-09 20:01:00,
2013-02-09 14:06:00,29.1,25.4,29.94,South,170,0.0,2.0,86,0.00,,SKC,0.00,VWS V14.01,2013-02-09 20:06:00,
2013-02-09 14:11:00,29.2,25.5,29.94,South,172,0.0,6.0,86,0.00,,SKC,0.00,VWS V14.01,2013-02-09 20:11:00,
2013-02-09 14:17:00,29.2,25.5,29.94,SSE,164,0.0,7.0,86,0.00,,SKC,0.00,VWS V14.01,2013-02-09 20:17:00,
2013-02-09 14:22:00,29.3,25.6,29.94,SSE,164,1.0,7.0,86,0.00,,SKC,0.00,VWS V14.01,2013-02-09 20:22:00,
2013-02-09 14:27:00,29.3,25.6,29.94,SSE,164,2.0,7.0,86,0.00,,SKC,0.00,VWS V14.01,2013-02-09 20:27:00,
2013-02-09 14:30:00,29.3,25.6,29.94,SSW,198,4.0,9.0,86,0.00,,SKC,0.00,VWS V14.01,2013-02-09 20:30:00,
2013-02-09 14:32:00,29.3,25.6,29.94,SSW,197,0.0,9.0,86,0.00,,SKC,0.00,VWS V14.01,2013-02-09 20:32:00,
2013-02-09 14:37:00,29.3,25.6,29.93,SSW,198,0.0,4.0,86,0.00,,SKC,0.00,VWS V14.01,2013-02-09 20:37:00,
2013-02-09 14:42:00,29.4,26.0,29.93,SSW,198,0.0,5.0,87,0.00,,SKC,0.00,VWS V14.01,2013-02-09 20:42:00,
2013-02-09 14:47:00,29.4,25.7,29.93,SSW,198,1.0,5.0,86,0.00,,SKC,0.00,VWS V14.01,2013-02-09 20:47:00,
2013-02-09 14:52:00,29.5,25.8,29.93,SSW,198,0.0,5.0,86,0.00,,SKC,0.00,VWS V14.01,2013-02-09 20:52:00,
2013-02-09 14:57:00,29.6,25.9,29.93,SSW,198,0.0,5.0,86,0.00,,SKC,0.00,VWS V14.01,2013-02-09 20:57:00,
2013-02-09 15:00:00,29.6,25.9,29.93,SSW,198,1.0,6.0,86,0.00,,SKC,0.00,VWS V14.01,2013-02-09 21:00:00,
2013-02-09 15:02:00,29.6,25.9,29.93,SSW,198,0.0,6.0,86,0.00,,SKC,0.00,VWS V14.01,2013-02-09 21:02:00,
2013-02-09 15:07:00,29.6,25.9,29.93,SSW,198,0.0,1.0,86,0.00,,SKC,0.00,VWS V14.01,2013-02-09 21:07:00,
2013-02-09 15:12:00,29.6,25.9,29.92,SSW,198,0.0,3.0,86,0.00,,SKC,0.00,VWS V14.01,2013-02-09 21:12:00,
2013-02-09 15:17:00,29.6,25.9,29.92,SSW,197,0.0,4.0,86,0.00,,SKC,0.00,VWS V14.01,2013-02-09 21:17:00,
2013-02-09 15:22:00,29.7,26.0,29.92,SSW,197,1.0,4.0,86,0.00,,SKC,0.00,VWS V14.01,2013-02-09 21:22:00,
2013-02-09 15:27:00,29.6,25.9,29.92,SSW,197,0.0,5.0,86,0.00,,SKC,0.00,VWS V14.01,2013-02-09 21:27:00,
2013-02-09 15:30:00,29.7,26.3,29.92,SSW,192,5.0,6.0,87,0.00,,SKC,0.00,VWS V14.01,2013-02-09 21:30:00,
2013-02-09 15:32:00,29.7,26.0,29.92,SSW,197,0.0,5.0,86,0.00,,SKC,0.00,VWS V14.01,2013-02-09 21:32:00,
2013-02-09 15:37:00,29.7,26.0,29.92,SSE,159,4.0,7.0,86,0.00,,SKC,0.00,VWS V14.01,2013-02-09 21:37:00,
2013-02-09 15:42:00,29.6,25.9,29.92,SE,145,5.0,9.0,86,0.00,,SKC,0.00,VWS V14.01,2013-02-09 21:42:00,
2013-02-09 15:47:00,29.6,25.9,29.92,SE,146,6.0,9.0,86,0.00,,SKC,0.00,VWS V14.01,2013-02-09 21:47:00,
2013-02-09 15:52:00,29.4,25.7,29.92,SSE,147,2.0,9.0,86,0.00,,SKC,0.00,VWS V14.01,2013-02-09 21:52:00,
2013-02-09 15:57:00,29.4,26.0,29.92,SE,146,3.0,9.0,87,0.00,,SKC,0.00,VWS V14.01,2013-02-09 21:57:00,
2013-02-09 16:00:00,29.3,25.9,29.92,SE,146,1.0,9.0,87,0.00,,SKC,0.00,VWS V14.01,2013-02-09 22:00:00,
2013-02-09 16:02:00,29.3,25.9,29.92,SE,146,2.0,9.0,87,0.00,,SKC,0.00,VWS V14.01,2013-02-09 22:02:00,
2013-02-09 16:07:00,29.3,25.9,29.92,SE,146,6.0,6.0,87,0.00,,SKC,0.00,VWS V14.01,2013-02-09 22:07:00,
2013-02-09 16:12:00,29.3,25.9,29.92,SE,146,1.0,7.0,87,0.00,,SKC,0.00,VWS V14.01,2013-02-09 22:12:00,
2013-02-09 16:17:00,29.2,26.1,29.91,SE,146,2.0,7.0,88,0.00,,SKC,0.00,VWS V14.01,2013-02-09 22:17:00,
2013-02-09 16:22:00,29.2,26.1,29.91,SE,146,2.0,7.0,88,0.00,,SKC,0.00,VWS V14.01,2013-02-09 22:22:00,
2013-02-09 16:27:00,29.1,26.0,29.91,SE,146,2.0,7.0,88,0.00,,SKC,0.00,VWS V14.01,2013-02-09 22:27:00,
2013-02-09 16:30:00,29.1,26.3,29.91,SSE,148,6.0,8.0,89,0.00,,SKC,0.00,VWS V14.01,2013-02-09 22:30:00,
2013-02-09 16:32:00,29.1,26.3,29.91,SSE,148,4.0,8.0,89,0.00,,SKC,0.00,VWS V14.01,2013-02-09 22:32:00,
2013-02-09 16:37:00,29.1,26.3,29.91,SSE,148,5.0,7.0,89,0.00,,SKC,0.00,VWS V14.01,2013-02-09 22:37:00,
2013-02-09 16:42:00,29.1,26.3,29.91,SSE,148,7.0,7.0,89,0.00,,SKC,0.00,VWS V14.01,2013-02-09 22:42:00,
2013-02-09 16:47:00,29.0,26.4,29.91,SSE,147,8.0,8.0,90,0.00,,SKC,0.00,VWS V14.01,2013-02-09 22:47:00,
2013-02-09 16:53:00,28.9,26.3,29.91,SE,146,3.0,8.0,90,0.00,,SKC,0.00,VWS V14.01,2013-02-09 22:53:00,
2013-02-09 16:58:00,28.9,26.3,29.91,SE,146,2.0,8.0,90,0.00,,SKC,0.00,VWS V14.01,2013-02-09 22:58:00,
2013-02-09 17:00:00,28.8,26.5,29.90,SE,146,8.0,8.0,91,0.00,,SKC,0.00,VWS V14.01,2013-02-09 23:00:00,
2013-02-09 17:03:00,28.8,26.5,29.90,SE,146,5.0,8.0,91,0.00,,SKC,0.00,VWS V14.01,2013-02-09 23:03:00,
2013-02-09 17:08:00,28.8,26.5,29.90,SE,146,4.0,8.0,91,0.00,,SKC,0.00,VWS V14.01,2013-02-09 23:08:00,
2013-02-09 17:13:00,28.8,26.5,29.90,SE,146,5.0,8.0,91,0.00,,SKC,0.00,VWS V14.01,2013-02-09 23:13:00,
2013-02-09 17:18:00,28.8,26.5,29.90,SE,146,6.0,8.0,91,0.00,,SKC,0.00,VWS V14.01,2013-02-09 23:18:00,
2013-02-09 17:23:00,28.7,26.7,29.91,SE,146,5.0,8.0,92,0.00,,SKC,0.00,VWS V14.01,2013-02-09 23:23:00,
2013-02-09 17:28:00,28.7,26.7,29.91,SE,145,7.0,8.0,92,0.00,,SKC,0.00,VWS V14.01,2013-02-09 23:28:00,
2013-02-09 17:30:00,28.6,26.6,29.91,SE,133,6.0,10.0,92,0.00,,SKC,0.00,VWS V14.01,2013-02-09 23:30:00,
2013-02-09 17:33:00,28.7,26.7,29.91,SE,138,10.0,10.0,92,0.00,,SKC,0.00,VWS V14.01,2013-02-09 23:33:00,
2013-02-09 17:38:00,28.5,26.5,29.91,ESE,115,9.0,10.0,92,0.00,,SKC,0.00,VWS V14.01,2013-02-09 23:38:00,
2013-02-09 17:43:00,28.4,26.4,29.91,ESE,115,6.0,10.0,92,0.00,,SKC,0.00,VWS V14.01,2013-02-09 23:43:00,
2013-02-09 17:48:00,28.3,26.5,29.91,ESE,119,8.0,10.0,93,0.00,,SKC,0.00,VWS V14.01,2013-02-09 23:48:00,
2013-02-09 17:53:00,28.3,26.5,29.90,ESE,119,8.0,10.0,93,0.00,,SKC,0.00,VWS V14.01,2013-02-09 23:53:00,
2013-02-09 17:58:00,28.3,26.5,29.90,ESE,119,6.0,10.0,93,0.00,,SKC,0.00,VWS V14.01,2013-02-09 23:58:00,
2013-02-09 18:00:00,28.2,26.4,29.90,ESE,119,7.0,10.0,93,0.00,,SKC,0.00,VWS V14.01,2013-02-10 00:00:00,
2013-02-09 18:03:00,28.3,26.5,29.90,ESE,119,6.0,10.0,93,0.00,,SKC,0.00,VWS V14.01,2013-02-10 00:03:00,
2013-02-09 18:08:00,28.2,26.4,29.90,ESE,119,5.0,8.0,93,0.00,,SKC,0.00,VWS V14.01,2013-02-10 00:08:00,
2013-02-09 18:13:00,28.3,26.5,29.90,ESE,119,6.0,8.0,93,0.00,,SKC,0.00,VWS V14.01,2013-02-10 00:13:00,
2013-02-09 18:18:00,28.3,26.5,29.90,ESE,118,8.0,8.0,93,0.00,,SKC,0.00,VWS V14.01,2013-02-10 00:18:00,
2013-02-09 18:23:00,28.5,27.0,29.90,ESE,118,7.0,8.0,94,0.00,,SKC,0.00,VWS V14.01,2013-02-10 00:23:00,
2013-02-09 18:28:00,28.4,26.9,29.90,ESE,118,7.0,8.0,94,0.00,,SKC,0.00,VWS V14.01,2013-02-10 00:28:00,
2013-02-09 18:30:00,28.4,26.9,29.90,ESE,118,6.0,8.0,94,0.00,,SKC,0.00,VWS V14.01,2013-02-10 00:30:00,
2013-02-09 18:33:00,28.4,26.9,29.90,ESE,118,6.0,8.0,94,0.00,,SKC,0.00,VWS V14.01,2013-02-10 00:33:00,
2013-02-09 18:39:00,28.4,26.9,29.90,ESE,118,6.0,9.0,94,0.00,,SKC,0.00,VWS V14.01,2013-02-10 00:39:00,
2013-02-09 18:44:00,28.5,27.0,29.90,ESE,118,7.0,9.0,94,0.00,,SKC,0.00,VWS V14.01,2013-02-10 00:44:00,
2013-02-09 18:49:00,28.5,27.0,29.90,ESE,120,7.0,9.0,94,0.00,,SKC,0.00,VWS V14.01,2013-02-10 00:49:00,
2013-02-09 18:54:00,28.6,27.1,29.90,ESE,121,6.0,11.0,94,0.00,,SKC,0.00,VWS V14.01,2013-02-10 00:54:00,
2013-02-09 18:59:00,28.6,27.1,29.90,ESE,121,6.0,11.0,94,0.00,,SKC,0.00,VWS V14.01,2013-02-10 00:59:00,
2013-02-09 19:00:00,28.7,27.2,29.90,SE,126,9.0,12.0,94,0.00,,SKC,0.00,VWS V14.01,2013-02-10 01:00:00,
2013-02-09 19:04:00,28.6,27.1,29.90,SE,126,9.0,12.0,94,0.00,,SKC,0.00,VWS V14.01,2013-02-10 01:04:00,
2013-02-09 19:09:00,28.7,27.2,29.90,SE,126,7.0,11.0,94,0.00,,SKC,0.00,VWS V14.01,2013-02-10 01:09:00,
2013-02-09 19:14:00,28.7,27.2,29.90,SE,126,7.0,11.0,94,0.00,,SKC,0.00,VWS V14.01,2013-02-10 01:14:00,
2013-02-09 19:19:00,28.7,27.2,29.90,SE,126,9.0,11.0,94,0.00,,SKC,0.00,VWS V14.01,2013-02-10 01:19:00,
2013-02-09 19:24:00,28.7,27.2,29.90,SE,128,10.0,12.0,94,0.00,,SKC,0.00,VWS V14.01,2013-02-10 01:24:00,
2013-02-09 19:29:00,28.7,27.2,29.90,SE,127,9.0,12.0,94,0.00,,SKC,0.00,VWS V14.01,2013-02-10 01:29:00,
2013-02-09 19:30:00,28.7,27.2,29.90,ESE,117,6.0,12.0,94,0.00,,SKC,0.00,VWS V14.01,2013-02-10 01:30:00,
2013-02-09 19:34:00,28.7,27.2,29.90,ESE,117,7.0,12.0,94,0.00,,SKC,0.00,VWS V14.01,2013-02-10 01:34:00,
2013-02-09 19:39:00,28.6,27.1,29.90,ESE,117,9.0,9.0,94,0.00,,SKC,0.00,VWS V14.01,2013-02-10 01:39:00,
2013-02-09 19:44:00,28.5,27.0,29.90,ESE,121,9.0,13.0,94,0.00,,SKC,0.00,VWS V14.01,2013-02-10 01:44:00,
2013-02-09 19:49:00,28.4,26.9,29.90,ESE,121,10.0,13.0,94,0.00,,SKC,0.00,VWS V14.01,2013-02-10 01:49:00,
2013-02-09 19:54:00,28.4,26.9,29.90,SE,126,14.0,14.0,94,0.00,,SKC,0.00,VWS V14.01,2013-02-10 01:54:00,
2013-02-09 19:59:00,28.4,26.9,29.90,SE,126,7.0,14.0,94,0.00,,SKC,0.00,VWS V14.01,2013-02-10 01:59:00,
2013-02-09 20:00:00,28.4,26.9,29.90,SE,126,10.0,14.0,94,0.00,,SKC,0.00,VWS V14.01,2013-02-10 02:00:00,
2013-02-09 20:04:00,28.4,26.9,29.90,SE,126,8.0,14.0,94,0.00,,SKC,0.00,VWS V14.01,2013-02-10 02:04:00,
2013-02-09 20:09:00,28.4,27.1,29.90,SE,126,9.0,10.0,95,0.00,,SKC,0.00,VWS V14.01,2013-02-10 02:09:00,
2013-02-09 20:14:00,28.4,26.9,29.90,SE,126,8.0,12.0,94,0.00,,SKC,0.00,VWS V14.01,2013-02-10 02:14:00,
2013-02-09 20:19:00,28.3,26.8,29.90,SE,126,8.0,12.0,94,0.00,,SKC,0.00,VWS V14.01,2013-02-10 02:19:00,
2013-02-09 20:24:00,28.3,26.8,29.90,ESE,123,9.0,14.0,94,0.00,,SKC,0.00,VWS V14.01,2013-02-10 02:24:00,
2013-02-09 20:30:00,28.2,26.7,29.90,SE,124,13.0,15.0,94,0.00,,SKC,0.00,VWS V14.01,2013-02-10 02:30:00,
2013-02-09 20:35:00,28.1,26.6,29.90,SE,124,12.0,15.0,94,0.00,,SKC,0.00,VWS V14.01,2013-02-10 02:35:00,
2013-02-09 20:40:00,28.1,26.6,29.90,ESE,122,11.0,12.0,94,0.00,,SKC,0.00,VWS V14.01,2013-02-10 02:40:00,
2013-02-09 20:45:00,28.1,26.6,29.89,ESE,121,10.0,15.0,94,0.00,,SKC,0.00,VWS V14.01,2013-02-10 02:45:00,
2013-02-09 20:50:00,28.0,26.8,29.89,SE,124,12.0,15.0,95,0.00,,SKC,0.00,VWS V14.01,2013-02-10 02:50:00,
2013-02-09 20:55:00,28.0,26.8,29.89,ESE,123,12.0,16.0,95,0.00,,SKC,0.00,VWS V14.01,2013-02-10 02:55:00,
2013-02-09 21:00:00,28.0,26.8,29.89,ESE,122,9.0,16.0,95,0.00,,SKC,0.00,VWS V14.01,2013-02-10 03:00:00,
2013-02-09 21:05:00,28.0,26.8,29.89,SE,124,12.0,16.0,95,0.00,,SKC,0.00,VWS V14.01,2013-02-10 03:05:00,
2013-02-09 21:10:00,28.0,26.5,29.89,ESE,123,11.0,13.0,94,0.00,,SKC,0.00,VWS V14.01,2013-02-10 03:10:00,
2013-02-09 21:15:00,27.9,26.4,29.88,SE,125,13.0,15.0,94,0.00,,SKC,0.00,VWS V14.01,2013-02-10 03:15:00,
2013-02-09 21:20:00,27.9,26.7,29.88,ESE,122,11.0,15.0,95,0.00,,SKC,0.00,VWS V14.01,2013-02-10 03:20:00,
2013-02-09 21:25:00,27.9,26.7,29.88,SE,129,12.0,18.0,95,0.00,,SKC,0.00,VWS V14.01,2013-02-10 03:25:00,
2013-02-09 21:30:00,27.9,26.7,29.89,SE,130,10.0,18.0,95,0.00,,SKC,0.00,VWS V14.01,2013-02-10 03:30:00,
2013-02-09 21:35:00,27.9,26.7,29.89,SE,134,10.0,10.0,95,0.00,,SKC,0.00,VWS V14.01,2013-02-10 03:35:00,
2013-02-09 21:41:00,27.9,26.7,29.89,SE,133,7.0,13.0,95,0.00,,SKC,0.00,VWS V14.01,2013-02-10 03:41:00,
2013-02-09 21:46:00,27.9,26.7,29.90,SE,134,9.0,13.0,95,0.00,,SKC,0.00,VWS V14.01,2013-02-10 03:46:00,
2013-02-09 21:51:00,27.9,26.7,29.90,SE,140,9.0,13.0,95,0.00,,SKC,0.00,VWS V14.01,2013-02-10 03:51:00,
2013-02-09 21:56:00,27.9,26.7,29.90,SE,141,12.0,13.0,95,0.00,,SKC,0.00,VWS V14.01,2013-02-10 03:56:00,
2013-02-09 22:00:00,27.8,26.6,29.90,SE,142,6.0,13.0,95,0.00,,SKC,0.00,VWS V14.01,2013-02-10 04:00:00,
2013-02-09 22:01:00,27.9,26.7,29.90,SE,139,7.0,13.0,95,0.00,,SKC,0.00,VWS V14.01,2013-02-10 04:01:00,
2013-02-09 22:06:00,27.8,26.6,29.90,SE,142,8.0,10.0,95,0.00,,SKC,0.00,VWS V14.01,2013-02-10 04:06:00,
2013-02-09 22:11:00,27.8,26.6,29.90,SE,139,6.0,11.0,95,0.00,,SKC,0.00,VWS V14.01,2013-02-10 04:11:00,
2013-02-09 22:16:00,27.8,26.6,29.89,SE,130,9.0,14.0,95,0.00,,SKC,0.00,VWS V14.01,2013-02-10 04:16:00,
2013-02-09 22:21:00,27.8,26.6,29.89,SE,130,6.0,14.0,95,0.00,,SKC,0.00,VWS V14.01,2013-02-10 04:21:00,
2013-02-09 22:26:00,27.8,26.6,29.89,SE,130,9.0,14.0,95,0.00,,SKC,0.00,VWS V14.01,2013-02-10 04:26:00,
2013-02-09 22:30:00,27.7,26.5,29.89,SE,130,9.0,14.0,95,0.00,,SKC,0.00,VWS V14.01,2013-02-10 04:30:00,
2013-02-09 22:31:00,27.7,26.5,29.89,SE,130,9.0,14.0,95,0.00,,SKC,0.00,VWS V14.01,2013-02-10 04:31:00,
2013-02-09 22:36:00,27.7,26.5,29.89,SE,130,7.0,9.0,95,0.00,,SKC,0.00,VWS V14.01,2013-02-10 04:36:00,
2013-02-09 22:41:00,27.7,26.5,29.88,SE,130,7.0,10.0,95,0.00,,SKC,0.00,VWS V14.01,2013-02-10 04:41:00,
2013-02-09 22:46:00,27.7,26.5,29.88,SE,129,8.0,10.0,95,0.00,,SKC,0.00,VWS V14.01,2013-02-10 04:46:00,
2013-02-09 22:51:00,27.6,26.4,29.88,SE,129,7.0,10.0,95,0.00,,SKC,0.00,VWS V14.01,2013-02-10 04:51:00,
2013-02-09 22:56:00,27.6,26.4,29.88,SE,130,6.0,10.0,95,0.00,,SKC,0.00,VWS V14.01,2013-02-10 04:56:00,
2013-02-09 23:00:00,27.6,26.4,29.88,SE,129,7.0,11.0,95,0.00,,SKC,0.00,VWS V14.01,2013-02-10 05:00:00,
2013-02-09 23:01:00,27.6,26.4,29.88,SE,129,6.0,11.0,95,0.00,,SKC,0.00,VWS V14.01,2013-02-10 05:01:00,
2013-02-09 23:02:00,27.6,26.4,29.88,SE,129,12.0,12.0,95,0.00,,SKC,0.00,VWS V14.01,2013-02-10 05:02:00,
2013-02-09 23:03:00,27.6,26.4,29.88,SE,129,10.0,12.0,95,0.00,,SKC,0.00,VWS V14.01,2013-02-10 05:03:00,
2013-02-09 23:08:00,27.6,26.4,29.88,SE,128,10.0,12.0,95,0.00,,SKC,0.00,VWS V14.01,2013-02-10 05:08:00,
2013-02-09 23:13:00,27.6,26.4,29.87,SE,125,11.0,13.0,95,0.00,,SKC,0.00,VWS V14.01,2013-02-10 05:13:00,
2013-02-09 23:18:00,27.6,26.4,29.87,ESE,119,11.0,14.0,95,0.00,,SKC,0.00,VWS V14.01,2013-02-10 05:18:00,
2013-02-09 23:23:00,27.6,26.4,29.87,ESE,119,9.0,14.0,95,0.00,,SKC,0.00,VWS V14.01,2013-02-10 05:23:00,
2013-02-09 23:28:00,27.5,26.3,29.87,ESE,121,7.0,14.0,95,0.00,,SKC,0.00,VWS V14.01,2013-02-10 05:28:00,
2013-02-09 23:30:00,27.5,26.3,29.87,ESE,123,10.0,14.0,95,0.00,,SKC,0.00,VWS V14.01,2013-02-10 05:30:00,
2013-02-09 23:33:00,27.5,26.3,29.87,ESE,123,8.0,14.0,95,0.00,,SKC,0.00,VWS V14.01,2013-02-10 05:33:00,
2013-02-09 23:38:00,27.5,26.3,29.87,ESE,123,5.0,10.0,95,0.00,,SKC,0.00,VWS V14.01,2013-02-10 05:38:00,
2013-02-09 23:43:00,27.5,26.3,29.87,ESE,122,7.0,12.0,95,0.00,,SKC,0.00,VWS V14.01,2013-02-10 05:43:00,
2013-02-09 23:48:00,27.5,26.3,29.87,ESE,123,7.0,12.0,95,0.00,,SKC,0.00,VWS V14.01,2013-02-10 05:48:00,
2013-02-09 23:53:00,27.5,26.3,29.87,ESE,123,7.0,12.0,95,0.00,,SKC,0.00,VWS V14.01,2013-02-10 05:53:00,
2013-02-09 23:58:00,27.4,26.2,29.87,ESE,121,9.0,12.0,95,0.00,,SKC,0.00,VWS V14.01,2013-02-10 05:58:00,